OE5MIL-13 Weather Reports


time (UTC)temp
C
wind
direction
speed
KPH
gust
KPH
rain 1hr
cm
rain 24hr
cm
rain mn
cm
humidity
%
barometer
mb
20260507134559 0 317 11.3 14.5 0.00 0.00 0.00 100
20260507132558 0 288 9.7 14.5 0.00 0.00 0.00 100
20260507130557 1 291 6.4 9.7 0.00 0.00 0.00 100
20260507124557 1 350 0.0 0.0 0.00 0.00 0.00 100
20260507122555 2 350 0.0 4.8 0.00 0.00 0.00 100
20260507120554 2 330 0.0 3.2 0.00 0.00 0.00 100
20260507114552 2 277 0.0 6.4 0.00 0.00 0.00 100
20260507112551 3 303 4.8 6.4 0.00 0.00 0.00 100
20260507111116 3 286 4.8 8.0 0.00 0.00 0.00 100
20260507110550 3 286 4.8 8.0 0.00 0.00 0.00 100
20260507104733 4 300 4.8 4.8 0.00 0.00 0.00 100
20260507104549 4 300 4.8 4.8 0.00 0.00 0.00 100
20260507102548 3 196 1.6 4.8 0.00 0.00 0.00 100
20260507100547 3 298 4.8 6.4 0.00 0.00 0.00 100
20260507094546 4 168 0.0 1.6 0.00 0.00 0.00 100
20260507092544 3 87 0.0 0.0 0.00 0.00 0.00 100
20260507090543 2 144 1.6 6.4 0.00 0.00 0.00 100
20260507084542 2 94 0.0 3.2 0.00 0.00 0.00 100
20260507082541 2 126 0.0 0.0 0.00 0.00 0.00 100
20260507080540 2 203 1.6 6.4 0.00 0.00 0.00 100
20260507074539 1 354 0.0 0.0 0.00 0.00 0.00 100
20260507072539 1 354 0.0 0.0 0.00 0.00 0.00 100
20260507070537 2 153 0.0 0.0 0.00 0.00 0.00 100
20260507064536 1 153 0.0 0.0 0.00 0.00 0.00 100
20260507062535 1 153 0.0 0.0 0.00 0.00 0.00 100
20260507060533 1 153 0.0 0.0 0.00 0.00 0.00 100
20260507054532 1 153 0.0 0.0 0.00 0.00 0.00 100
20260507052531 1 153 0.0 4.8 0.00 0.00 0.00 100
20260507050529 1 143 1.6 3.2 0.00 0.00 0.00 100
20260507044528 1 154 3.2 3.2 0.00 0.00 0.00 100
20260507042527 1 120 0.0 0.0 0.00 0.00 0.00 100
20260507040526 1 99 0.0 4.8 0.00 0.00 0.00 100
20260507034525 1 80 0.0 0.0 0.00 0.00 0.00 100
20260507032524 1 80 0.0 4.8 0.00 0.00 0.00 100
20260507030523 1 292 0.0 0.0 0.00 0.00 0.00 100
20260507024521 1 292 0.0 0.0 0.00 0.00 0.00 100
20260507022520 1 292 0.0 0.0 0.00 0.00 0.00 100
20260507020519 1 292 0.0 0.0 0.00 0.00 0.00 100
20260507014518 2 292 0.0 0.0 0.00 0.00 0.00 100
20260507012517 2 292 0.0 0.0 0.00 0.00 0.00 100
20260507010516 2 292 0.0 0.0 0.00 0.00 0.00 100
20260507004516 2 292 0.0 0.0 0.00 0.00 0.00 100
20260507002513 2 292 0.0 0.0 0.00 0.00 0.00 100
20260507000512 2 292 0.0 0.0 0.00 0.00 0.00 100
20260506234511 2 292 0.0 0.0 0.00 0.00 0.00 100
20260506232510 2 292 0.0 0.0 0.00 0.00 0.00 100
20260506230509 2 292 0.0 0.0 0.00 0.00 0.00 100
20260506224508 2 292 0.0 0.0 0.00 0.00 0.00 100
20260506220505 2 292 0.0 0.0 0.00 0.00 0.00 100
20260506214504 2 292 0.0 0.0 0.00 0.00 0.00 100
20260506212503 2 355 0.0 0.0 0.00 0.00 0.00 100
20260506210502 2 327 11.3 14.5 0.00 0.00 0.00 100
20260506204501 3 322 0.0 9.7 0.00 0.00 0.00 100
20260506202501 3 316 4.8 9.7 0.00 0.00 0.00 100
20260506200458 4 317 0.0 0.0 0.00 0.00 0.00 100
20260506194457 5 333 0.0 4.8 0.00 0.00 0.00 100
20260506192456 6 157 0.0 0.0 0.00 0.00 0.00 100
20260506190455 6 288 0.0 0.0 0.00 0.00 0.00 100
20260506184454 6 282 0.0 4.8 0.00 0.00 0.00 100
20260506182453 7 289 3.2 11.3 0.00 0.00 0.00 100
20260506180452 7 320 0.0 16.1 0.00 0.00 0.00 100
20260506174450 7 116 0.0 19.3 0.00 0.00 0.00 100
20260506172449 8 293 19.3 29.0 0.00 0.00 0.00 100
20260506170448 12 144 9.7 11.3 0.00 0.00 0.00 100
20260506164447 10 165 14.5 17.7 0.00 0.00 0.00 100
20260506162446 11 305 6.4 12.9 0.00 0.00 0.00 100
20260506160445 13 144 20.9 20.9 0.00 0.00 0.00 100
20260506154443 13 149 9.7 22.5 0.00 0.00 0.00 100
20260506152442 13 180 12.9 22.5 0.00 0.00 0.00 100
20260506150441 13 188 0.0 16.1 0.00 0.00 0.00 100
20260506144440 13 158 6.4 30.6 0.00 0.00 0.00 100
20260506142439 15 140 4.8 11.3 0.00 0.00 0.00 100
20260506140438 15 191 8.0 20.9 0.00 0.00 0.00 100